Content
SEND FEEDBACK

Daily
Averages
Monthly
Summary
United States of America

MERIZO, GUAM


Home > North America > United States > Guam
Elevation: 10 feet     Latitude: 13 14N     Longitude: 144 39E

WEATHER
 
SELECT A DAY
Number of Records: 341,716;   Date Range: 1/1/95 - 7/22/14
 
SHARE

PRINT THIS DATA

[ ← Previous Day ]
WEATHER ALMANAC - MAY 6, 2014
[ Next Day → ]
[ °C ]   °F
Weather ElementAverageHighLow
Temperature81.5 °F85.3 °F (12:58 pm)76.6 °F (1:58 am)
Dewpoint74.5 °F75.6 °F (8:58 am)71.6 °F (5:58 am)
Humidity79.4 %89 % (3:48 am)70 % (12:58 pm)
Barometer29.94 in30.00 in (8:08 am)29.86 in (4:58 pm)
Wind Speed12.9 mph18.4 mph (8:08 am)
Wind Gust20.7 mph (11:58 am)
Weather ElementAverage
Visibility10 mi
Wind DirectionENE (73.2 °)

Weather ElementTotal
Precipitation---
Cooling Degree Days16 (Base 65)
Growing Degree Days31 (Base 50)
Averaged from 41 records on May 6, 2014
WEATHER CONDITIONS BREAKOUT
WIND DIRECTION BREAKOUT
WEATHER BY HOUR - MAY 6, 2014
[ °C ]   °F
Local TimeTemperatureDewpointHumidityBarometerVisibilityWind DirectionWind SpeedGust SpeedPrecipitationEventsConditions
1:58 AM76.6 °F72.3 °F86 %29.92 in10.0 miENE (70°)8.1 mphClear
2:58 AM77.2 °F73.2 °F88 %29.92 in10.0 miENE (60°)9.2 mphClear
3:38 AM78.8 °F73.4 °F83 %29.95 in10.0 miNE (50°)8.1 mphDrizzle
3:48 AM78.8 °F75.2 °F89 %29.95 in10.0 miENE (60°)8.1 mphScattered Clouds
3:58 AM77.9 °F74.3 °F89 %29.92 in10.0 miENE (60°)9.2 mph0.00 inPartly Cloudy
4:58 AM78.3 °F74.5 °F88 %29.94 in10.0 miNE (40°)9.2 mphMostly Cloudy
5:53 AM78.8 °F73.4 °F83 %29.97 in10.0 miENE (60°)12.7 mphMostly Cloudy
5:58 AM77.0 °F71.6 °F83 %29.94 in10.0 miENE (60°)10.4 mphScattered Clouds
6:58 AM80.1 °F74.8 °F84 %29.96 in10.0 miENE (60°)13.8 mphScattered Clouds
7:58 AM81.1 °F75.2 °F82 %29.97 in10.0 miENE (60°)15.0 mphMostly Cloudy
8:08 AM82.4 °F73.4 °F74 %30.00 in10.0 miENE (70°)18.4 mphScattered Clouds
8:43 AM82.4 °F75.2 °F79 %30.00 in10.0 miENE (70°)13.8 mphMostly Cloudy
8:58 AM82.6 °F75.6 °F79 %29.97 in10.0 miENE (70°)13.8 mphMostly Cloudy
9:03 AM82.4 °F75.2 °F79 %29.99 in10.0 miENE (70°)12.7 mphMostly Cloudy
9:13 AM84.2 °F75.2 °F74 %29.99 in10.0 miENE (60°)12.7 mphScattered Clouds
9:58 AM84.4 °F75.6 °F75 %29.96 in10.0 miENE (70°)15.0 mph19.6 mphScattered Clouds
10:03 AM84.2 °F75.2 °F74 %29.99 in10.0 miENE (70°)15.0 mphMostly Cloudy
10:58 AM83.8 °F75.0 °F75 %29.96 in10.0 miEast (80°)16.1 mphMostly Cloudy
11:08 AM84.2 °F75.2 °F74 %29.97 in10.0 miEast (90°)13.8 mphScattered Clouds
11:58 AM84.4 °F74.3 °F72 %29.94 in10.0 miEast (90°)12.7 mph20.7 mphScattered Clouds
12:58 PM85.3 °F74.3 °F70 %29.91 in10.0 miEast (90°)16.1 mphScattered Clouds
1:58 PM84.7 °F74.1 °F70 %29.89 in10.0 miEast (90°)15.0 mphPartly Cloudy
2:28 PM84.2 °F75.2 °F74 %29.92 in10.0 miEast (100°)15.0 mphMostly Cloudy
2:33 PM84.2 °F73.4 °F70 %29.91 in10.0 miEast (100°)16.1 mphScattered Clouds
2:53 PM84.2 °F75.2 °F74 %29.91 in10.0 miEast (100°)13.8 mphScattered Clouds
2:58 PM83.8 °F74.7 °F74 %29.88 in10.0 miEast (100°)12.7 mphMostly Cloudy
3:03 PM84.2 °F75.2 °F74 %29.91 in10.0 miEast (90°)13.8 mphScattered Clouds
3:08 PM84.2 °F75.2 °F74 %29.91 in10.0 miEast (90°)13.8 mphScattered Clouds
3:13 PM84.2 °F75.2 °F74 %29.90 in10.0 miEast (90°)13.8 mphMostly Cloudy
3:33 PM84.2 °F75.2 °F74 %29.90 in10.0 miEast (80°)15.0 mphScattered Clouds
3:58 PM83.3 °F74.5 °F75 %29.87 in10.0 miEast (80°)13.8 mphPartly Cloudy
4:58 PM83.1 °F74.7 °F76 %29.86 in10.0 miEast (80°)13.8 mphPartly Cloudy
5:58 PM81.3 °F74.8 °F81 %29.88 in10.0 miEast (80°)16.1 mphScattered Clouds
9:47 PM78.8 °F73.4 °F83 %29.96 in10.0 miENE (70°)10.4 mphRainLight Rain
9:58 PM79.2 °F74.7 °F86 %29.94 in10.0 miENE (60°)12.7 mph0.00 inLight Drizzle
9:59 PM78.8 °F75.2 °F89 %29.96 in10.0 miENE (60°)13.8 mphPartly Cloudy
10:58 PM79.0 °F73.4 °F83 %29.94 in10.0 miENE (70°)10.4 mph0.00 inClear
11:18 PM78.8 °F75.2 °F89 %29.95 in10.0 miENE (60°)11.5 mphMostly Cloudy
11:23 PM78.8 °F75.2 °F89 %29.95 in10.0 miENE (60°)10.4 mphMostly Cloudy
11:28 PM78.8 °F73.4 °F83 %29.95 in10.0 miENE (60°)11.5 mphScattered Clouds
11:58 PM79.0 °F74.1 °F85 %29.92 in10.0 miENE (70°)11.5 mphPartly Cloudy
Hourly data recorded from PGUA, located miles away from Merizo, Guam







STORIES FROM OUR PARTNERS